EOS-08

Last updated on Mon Sep 16 2024 00:02:03 GMT+0000 (Coordinated Universal Time)

1 60454U 24147A 24259.49474261 .00045382 00000+0 13770-2 0 9997 2 60454 37.3802 111.5909 0008201 262.9693 97.0134 15.33135366 4653
UTC large
Height (km)
Speed (km/s)
/
Latitude / Longitude
Inclination (degrees)
Orbital Period (minutes)
Azimuth
Elevation
Range (km)
Doppler Factor

Next 0 passes for location: London (51.5072 / 0.1276)

Sorry there are no passes over London.